EW5448 Weather Reports


Display with metric or nautical units.
time (UTC)temp
F
wind
direction
speed
MPH
gust
MPH
rain 1hr
in
rain 24hr
in
rain mn
in
humidity
%
barometer
mb
20260903183030 94 218 5.0 10.0 0.00 0.00 0.00 15 995.5
20260903181528 94 146 5.0 11.0 0.00 0.00 0.00 15 995.5
20260903180034 92 128 7.0 11.0 0.00 0.00 0.00 17 995.6
20260903174527 92 149 4.0 10.0 0.00 0.00 0.00 17 995.8
20260903173024 91 164 5.0 11.0 0.00 0.00 0.00 18 995.9
20260903171522 91 133 5.0 10.0 0.00 0.00 0.00 18 995.8
20260903170022 89 159 3.0 8.0 0.00 0.00 0.00 19 995.9
20260903164518 88 155 6.0 10.0 0.00 0.00 0.00 19 995.9
20260903163016 87 117 6.0 9.0 0.00 0.00 0.00 19 995.9
20260903161514 87 134 3.0 7.0 0.00 0.00 0.00 19 996.0
20260903160032 87 193 3.0 6.0 0.00 0.00 0.00 19 996.0
20260903154517 85 198 0.0 2.0 0.00 0.00 0.00 20 995.9
20260903153011 84 138 0.0 2.0 0.00 0.00 0.00 21 996.1
20260903151510 82 119 2.0 4.0 0.00 0.00 0.00 22 996.1
20260903150023 80 144 1.0 5.0 0.00 0.00 0.00 23 996.1
20260903144511 80 214 1.0 5.0 0.00 0.00 0.00 23 995.9
20260903143018 79 174 1.0 4.0 0.00 0.00 0.00 23 995.8
20260903141507 77 167 0.0 4.0 0.00 0.00 0.00 23 995.7
20260903140002 75 160 0.0 2.0 0.00 0.00 0.00 24 995.4
20260903134604 74 251 0.0 1.0 0.00 0.00 0.00 25 995.3
20260903133105 73 250 0.0 4.0 0.00 0.00 0.00 24 995.0
20260903131556 74 178 1.0 6.0 0.00 0.00 0.00 24 994.8
20260903130054 73 166 1.0 4.0 0.00 0.00 0.00 24 994.7
20260903124557 73 215 0.0 3.0 0.00 0.00 0.00 24 994.6
20260903123051 74 220 1.0 4.0 0.00 0.00 0.00 25 994.4
20260903121549 74 337 0.0 0.0 0.00 0.00 0.00 23 994.3
20260903120100 74 325 0.0 0.0 0.00 0.00 0.00 22 994.3
20260903114545 75 285 0.0 0.0 0.00 0.00 0.00 22 994.3
20260903113042 76 211 0.0 1.0 0.00 0.00 0.00 22 994.3
20260903111538 77 150 0.0 0.0 0.00 0.00 0.00 22 994.3
20260903110034 79 150 0.0 4.0 0.00 0.00 0.00 20 994.2
20260903104538 80 142 1.0 5.0 0.00 0.00 0.00 19 994.2
20260903103033 80 137 2.0 5.0 0.00 0.00 0.00 18 994.2
20260903101533 80 155 2.0 6.0 0.00 0.00 0.00 18 994.1
20260903100031 79 135 2.0 5.0 0.00 0.00 0.00 18 994.0
20260903094535 79 143 1.0 4.0 0.00 0.00 0.00 19 994.0
20260903093040 80 126 1.0 3.0 0.00 0.00 0.00 18 993.9
20260903091527 80 189 1.0 5.0 0.00 0.00 0.00 16 993.8
20260903090031 81 147 1.0 3.0 0.00 0.00 0.00 15 994.0
20260903084525 81 105 3.0 4.0 0.00 0.00 0.00 15 993.9
20260903083023 81 194 0.0 1.0 0.00 0.00 0.00 15 993.9
20260903081519 83 198 0.0 2.0 0.00 0.00 0.00 14 994.0
20260903080019 84 222 1.0 4.0 0.00 0.00 0.00 13 994.1
20260903074515 84 188 3.0 6.0 0.00 0.00 0.00 12 993.9
20260903073024 85 248 5.0 7.0 0.00 0.00 0.00 12 993.6
20260903071518 87 223 1.0 5.0 0.00 0.00 0.00 12 993.6
20260903070006 87 137 2.0 6.0 0.00 0.00 0.00 11 993.5
20260903064509 87 121 3.0 7.0 0.00 0.00 0.00 11 993.5
20260903063006 87 110 4.0 8.0 0.00 0.00 0.00 11 993.5
20260903061508 88 96 3.0 9.0 0.00 0.00 0.00 11 993.4
20260903060012 87 107 2.0 8.0 0.00 0.00 0.00 11 993.5
20260903054504 87 136 2.0 6.0 0.00 0.00 0.00 11 993.5
20260903053004 89 124 2.0 8.0 0.00 0.00 0.00 12 993.6
20260903051502 89 111 4.0 9.0 0.00 0.00 0.00 11 993.6
20260903050008 89 138 3.0 6.0 0.00 0.00 0.00 12 993.5
20260903044503 89 110 4.0 7.0 0.00 0.00 0.00 12 993.6
20260903043006 88 128 1.0 4.0 0.00 0.00 0.00 12 993.6
20260903041501 89 99 0.0 4.0 0.00 0.00 0.00 12 993.5
20260903040001 89 101 2.0 3.0 0.00 0.00 0.00 13 993.4
20260903034605 89 149 0.0 1.0 0.00 0.00 0.00 13 993.2
20260903033123 90 100 0.0 4.0 0.00 0.00 0.00 12 993.0
20260903031634 90 104 0.0 1.0 0.00 0.00 0.00 12 992.8
20260903024558 92 243 0.0 1.0 0.00 0.00 0.00 12 992.5
20260903023101 93 152 0.0 4.0 0.00 0.00 0.00 12 992.6
20260903021556 95 234 2.0 6.0 0.00 0.00 0.00 11 992.4
20260903020056 96 218 2.0 8.0 0.00 0.00 0.00 11 992.5
20260903014558 98 215 4.0 10.0 0.00 0.00 0.00 11 992.4
20260903013056 100 213 6.0 11.0 0.00 0.00 0.00 10 992.4
20260903011557 101 237 6.0 11.0 0.00 0.00 0.00 9 992.5
20260903010056 101 192 6.0 14.0 0.00 0.00 0.00 8 992.6
20260903004552 102 202 7.0 15.0 0.00 0.00 0.00 8 992.6
20260903003058 102 213 5.0 15.0 0.00 0.00 0.00 8 992.6
20260903001549 102 173 7.0 16.0 0.00 0.00 0.00 7 992.7
20260903000049 103 161 7.0 13.0 0.00 0.00 0.00 8 992.7
20260902234558 103 211 8.0 14.0 0.00 0.00 0.00 8 992.8
20260902233047 103 169 6.0 18.0 0.00 0.00 0.00 7 992.7
20260902231544 102 155 2.0 12.0 0.00 0.00 0.00 9 992.9
20260902230046 102 135 8.0 15.0 0.00 0.00 0.00 9 993.1
20260902224539 101 138 7.0 14.0 0.00 0.00 0.00 10 993.4
20260902223043 101 172 7.0 19.0 0.00 0.00 0.00 10 993.5
20260902221535 101 153 8.0 14.0 0.00 0.00 0.00 10 993.9
20260902220032 101 155 8.0 15.0 0.00 0.00 0.00 11 994.0
20260902214532 101 211 8.0 15.0 0.00 0.00 0.00 12 994.1
20260902213030 100 155 2.0 12.0 0.00 0.00 0.00 12 994.5
20260902211529 100 193 11.0 21.0 0.00 0.00 0.00 12 994.6
20260902210031 99 128 6.0 12.0 0.00 0.00 0.00 13 995.0
20260902204528 99 152 7.0 15.0 0.00 0.00 0.00 13 995.2
20260902203033 99 204 8.0 13.0 0.00 0.00 0.00 13 995.5
20260902201523 98 132 6.0 14.0 0.00 0.00 0.00 14 995.6
20260902200023 98 117 5.0 14.0 0.00 0.00 0.00 14 995.7
20260902194522 98 121 6.0 11.0 0.00 0.00 0.00 15 995.9
20260902193021 97 211 5.0 16.0 0.00 0.00 0.00 14 996.3
20260902191533 97 243 2.0 12.0 0.00 0.00 0.00 15 996.4
20260902190019 97 178 6.0 12.0 0.00 0.00 0.00 16 996.7
20260902184523 96 182 8.0 14.0 0.00 0.00 0.00 16 996.8